Sanford, NC

1:57 PM EDT on July 23, 2017 (GMT -0400)
Raleigh Executive Jetport

Weather History for KTTA - September, 2013

Change the Weather History Date:

Monday, September 2, 2013

  Actual Average (KHRJ) Record (KHRJ)
Temperature  
Mean Temperature 76 °F -  
Max Temperature 85 °F 87 °F 97 °F (1980)
Min Temperature 67 °F 65 °F -47 °F (2004)
Cooling Degree Days 11    
Growing Degree Days 26 (Base 50)    
Moisture  
Dew Point 70 °F    
Average Humidity 85    
Maximum Humidity 99    
Minimum Humidity 59    
Precipitation  
Precipitation 0.72 in - - ()
Sea Level Pressure  
Sea Level Pressure 29.86 in    
Wind  
Wind Speed 2 mph (SW)    
Max Wind Speed 7 mph    
Max Gust Speed -    
Visibility 7 miles    
Events Rain    
Averages and records for this station are not official NWS values.
T = Trace of Precipitation, MM = Missing Value Source: NWS Daily Summary

Daily Weather History Graph

Daily Weather History Graph

Search for Another Location

Airport or City:

Trip Planner

Search our weather history database for the weather conditions in past years. The results will help you decide how hot, cold, wet, or windy it might be!

Date:

Astronomy

Sep. 02, 2013 Rise Set
Actual Time 6:49 AM EDT 7:41 PM EDT
Civil Twilight 6:23 AM EDT 8:07 PM EDT
Nautical Twilight 5:52 AM EDT 8:38 PM EDT
Astronomical Twilight 5:20 AM EDT 9:10 PM EDT
Moon 4:08 AM EDT (9/2) 5:51 PM EDT (9/2)
Length of Visible Light 13h 44m
Length of Day
12h 52m
Waning Crescent, 8% of the Moon is Illuminated
Sep 2
Waning Crescent
Sep 5
New
Sep 12
First Quarter
Sep 19
Full
Sep 26
Last Quarter

Hourly Weather History & Observations

Time (EDT) Temp. Heat Index Dew Point Humidity Pressure Visibility Wind Dir Wind Speed Gust Speed Precip Events Conditions
12:15 AM 68.5 °F - 67.6 °F 97% 29.88 in 3.0 mi SE 4.6 mph - N/A   Clear
12:35 AM 69.3 °F - 68.4 °F 97% 29.89 in 5.0 mi Calm Calm - N/A   Mostly Cloudy
12:55 AM 69.3 °F - 68.4 °F 97% 29.89 in 7.0 mi Calm Calm - N/A   Scattered Clouds
1:15 AM 69.3 °F - 68.4 °F 97% 29.88 in 5.0 mi Calm Calm - N/A   Clear
1:35 AM 68.4 °F - 67.5 °F 97% 29.88 in 2.5 mi Calm Calm - N/A   Clear
1:55 AM 68.5 °F - 67.8 °F 98% 29.87 in 1.8 mi Calm Calm - N/A   Mostly Cloudy
2:15 AM 68.4 °F - 67.6 °F 98% 29.87 in 0.8 mi Calm Calm - N/A   Overcast
2:35 AM 68.2 °F - 67.5 °F 98% 29.86 in 0.8 mi Calm Calm - N/A   Mostly Cloudy
2:55 AM 68.7 °F - 68.0 °F 98% 29.87 in 4.0 mi Calm Calm - N/A Rain Light Rain
3:15 AM 68.2 °F - 67.5 °F 98% 29.86 in 1.2 mi Calm Calm - N/A   Scattered Clouds
3:35 AM 68.2 °F - 67.5 °F 98% 29.86 in 1.8 mi Calm Calm - N/A   Mist
3:55 AM 68.0 °F - 67.1 °F 97% 29.86 in 1.0 mi Calm Calm - N/A   Mostly Cloudy
4:15 AM 68.0 °F - 67.1 °F 97% 29.86 in 0.8 mi Calm Calm - N/A   Overcast
4:35 AM 68.0 °F - 67.1 °F 97% 29.86 in 1.8 mi Calm Calm - N/A   Scattered Clouds
4:55 AM 67.3 °F - 66.6 °F 98% 29.85 in 1.5 mi Calm Calm - N/A   Mist
5:15 AM 67.5 °F - 66.7 °F 98% 29.85 in 2.0 mi Calm Calm - N/A   Clear
5:35 AM 67.3 °F - 66.7 °F 98% 29.86 in 2.5 mi Calm Calm - N/A   Clear
5:55 AM 67.3 °F - 66.6 °F 98% 29.86 in 3.0 mi Calm Calm - N/A   Scattered Clouds
6:15 AM 67.5 °F - 67.1 °F 99% 29.87 in 5.0 mi Calm Calm - N/A   Overcast
6:35 AM 67.8 °F - 67.1 °F 98% 29.86 in 5.0 mi Calm Calm - N/A   Mostly Cloudy
6:55 AM 67.3 °F - 66.7 °F 98% 29.86 in 3.0 mi NNE 3.5 mph - N/A   Overcast
7:15 AM 67.6 °F - 67.1 °F 98% 29.86 in 5.0 mi Calm Calm - N/A   Scattered Clouds
7:35 AM 68.4 °F - 67.8 °F 98% 29.87 in 3.0 mi Calm Calm - N/A   Clear
7:55 AM 68.9 °F - 68.0 °F 97% 29.87 in 4.0 mi Calm Calm - N/A   Clear
8:15 AM 69.3 °F - 68.5 °F 98% 29.88 in 7.0 mi Calm Calm - N/A   Clear
8:35 AM 70.3 °F - 69.6 °F 98% 29.88 in 7.0 mi Calm Calm - N/A   Clear
8:55 AM 71.6 °F - 70.7 °F 97% 29.88 in 7.0 mi Calm Calm - N/A   Clear
9:15 AM 72.7 °F - 71.4 °F 96% 29.89 in 10.0 mi SSW 4.6 mph - N/A   Scattered Clouds
9:35 AM 73.8 °F - 70.3 °F 89% 29.89 in 10.0 mi SW 5.8 mph - N/A   Mostly Cloudy
9:55 AM 74.7 °F - 70.3 °F 86% 29.90 in 10.0 mi SSW 4.6 mph - N/A   Scattered Clouds
10:15 AM 75.7 °F - 70.7 °F 84% 29.90 in 10.0 mi WSW 5.8 mph - N/A   Mostly Cloudy
10:35 AM 76.3 °F - 70.7 °F 83% 29.90 in 10.0 mi SW 4.6 mph - N/A   Overcast
10:55 AM 77.0 °F - 70.5 °F 80% 29.91 in 10.0 mi WSW 4.6 mph - N/A   Mostly Cloudy
11:15 AM 79.0 °F - 71.6 °F 78% 29.91 in 10.0 mi SW 4.6 mph - N/A   Mostly Cloudy
11:35 AM 79.3 °F - 71.1 °F 76% 29.91 in 10.0 mi SW 5.8 mph - N/A   Mostly Cloudy
11:55 AM 80.6 °F 84.4 °F 71.1 °F 73% 29.90 in 10.0 mi SW 4.6 mph - N/A   Mostly Cloudy
12:15 PM 81.1 °F 85.4 °F 71.8 °F 73% 29.90 in 10.0 mi SW 4.6 mph - N/A   Scattered Clouds
12:35 PM 81.0 °F 84.9 °F 71.2 °F 72% 29.89 in 10.0 mi WSW 5.8 mph - N/A   Scattered Clouds
12:55 PM 81.5 °F 85.7 °F 71.4 °F 71% 29.89 in 10.0 mi WSW 5.8 mph - N/A   Scattered Clouds
1:15 PM 82.0 °F 86.5 °F 71.4 °F 70% 29.89 in 10.0 mi WNW 6.9 mph - N/A   Scattered Clouds
1:35 PM 82.4 °F 86.7 °F 71.1 °F 68% 29.88 in 10.0 mi West 4.6 mph - N/A   Clear
1:55 PM 84.2 °F 89.3 °F 71.1 °F 65% 29.87 in 10.0 mi West 4.6 mph - N/A   Clear
2:15 PM 85.1 °F 90.4 °F 71.2 °F 63% 29.86 in 10.0 mi SW 4.6 mph - N/A   Mostly Cloudy
2:35 PM 84.6 °F 90.3 °F 72.0 °F 66% 29.86 in 10.0 mi WSW 3.5 mph - N/A   Scattered Clouds
2:55 PM 84.2 °F 89.3 °F 71.2 °F 65% 29.85 in 10.0 mi Calm Calm - N/A   Clear
3:15 PM 84.2 °F 89.3 °F 71.2 °F 65% 29.85 in 10.0 mi Calm Calm - N/A   Scattered Clouds
3:35 PM 84.2 °F 89.6 °F 71.8 °F 66% 29.84 in 10.0 mi SSW 4.6 mph - N/A   Clear
3:55 PM 85.5 °F 91.8 °F 72.5 °F 65% 29.83 in 10.0 mi WSW 5.8 mph - N/A   Clear
4:15 PM 85.1 °F 90.1 °F 70.9 °F 62% 29.83 in 10.0 mi WSW 5.8 mph - N/A   Scattered Clouds
4:35 PM 85.1 °F 89.8 °F 70.2 °F 61% 29.82 in 10.0 mi Calm Calm - N/A   Scattered Clouds
4:55 PM 85.1 °F 90.4 °F 71.4 °F 63% 29.82 in 10.0 mi Calm Calm - N/A   Clear
5:15 PM 85.1 °F 90.1 °F 70.9 °F 62% 29.82 in 10.0 mi Calm Calm - N/A   Clear
5:35 PM 85.6 °F 90.1 °F 69.6 °F 59% 29.82 in 10.0 mi West 4.6 mph - N/A   Clear
5:55 PM 85.5 °F 90.1 °F 70.3 °F 60% 29.82 in 10.0 mi WSW 3.5 mph - N/A   Clear
6:15 PM 85.3 °F 89.8 °F 70.0 °F 60% 29.82 in 10.0 mi SW 3.5 mph - N/A   Clear
6:35 PM 85.1 °F 89.8 °F 70.5 °F 61% 29.82 in 10.0 mi Calm Calm - N/A   Clear
6:55 PM 84.6 °F 90.0 °F 71.6 °F 65% 29.81 in 10.0 mi Calm Calm - N/A   Clear
7:15 PM 81.1 °F 86.6 °F 73.9 °F 79% 29.82 in 10.0 mi Calm Calm - N/A   Clear
7:35 PM 78.3 °F - 73.6 °F 85% 29.82 in 10.0 mi Calm Calm - N/A   Clear
7:55 PM 76.3 °F - 73.4 °F 91% 29.83 in 7.0 mi Calm Calm - N/A   Clear
8:15 PM 75.6 °F - 73.0 °F 92% 29.83 in 7.0 mi Calm Calm - N/A   Clear
8:35 PM 75.0 °F - 72.9 °F 93% 29.84 in 7.0 mi Calm Calm - N/A   Clear
8:55 PM 73.9 °F - 72.1 °F 94% 29.84 in 4.0 mi Calm Calm - N/A   Clear
9:15 PM 74.1 °F - 72.1 °F 94% 29.84 in 7.0 mi Calm Calm - N/A   Clear
9:35 PM 73.4 °F - 71.2 °F 93% 29.85 in 4.0 mi Calm Calm - N/A   Clear
9:55 PM 73.4 °F - 71.6 °F 94% 29.85 in 4.0 mi Calm Calm - N/A   Clear
10:15 PM 72.7 °F - 71.2 °F 95% 29.85 in 3.0 mi Calm Calm - N/A   Clear
10:35 PM 72.5 °F - 70.9 °F 95% 29.85 in 4.0 mi Calm Calm - N/A   Clear
10:55 PM 72.3 °F - 70.9 °F 95% 29.85 in 2.5 mi Calm Calm - N/A   Clear
11:15 PM 72.0 °F - 70.7 °F 96% 29.85 in 3.0 mi Calm Calm - N/A   Clear
11:35 PM 72.0 °F - 70.7 °F 96% 29.86 in 4.0 mi Calm Calm - N/A   Clear
11:55 PM 71.8 °F - 70.7 °F 96% 29.85 in 4.0 mi Calm Calm - N/A   Clear